DL8NDG-13 Weather Reports


time (UTC)temp
F
wind
direction
speed
knots
gust
knots
rain 1hr
in
rain 24hr
in
rain mn
in
humidity
%
barometer
mb
20260506134518 66 259 0.9 3.5 0.00 0.09 0.00 58 1003.6
20260506133020 67 222 0.9 6.1 0.00 0.09 0.00 59 1003.8
20260506131516 66 166 0.0 0.9 0.00 0.09 0.00 59 1003.9
20260506130014 66 207 2.6 5.2 0.00 0.09 0.00 60 1004.2
20260506124512 67 144 0.0 0.0 0.00 0.09 0.00 58 1004.2
20260506123010 67 165 0.0 0.0 0.00 0.09 0.00 57 1004.5
20260506121507 67 149 0.0 0.0 0.00 0.09 0.00 62 1004.4
20260506120006 66 166 0.0 0.0 0.00 0.09 0.00 60 1004.6
20260506114505 66 133 0.0 0.0 0.00 0.09 0.00 62 1004.6
20260506113007 67 146 0.0 0.0 0.00 0.09 0.00 60 1004.7
20260506111502 66 159 0.0 0.0 0.00 0.09 0.00 65 1004.8
20260506110104 66 176 0.0 0.0 0.00 0.09 0.00 65 1005.0
20260506104615 65 189 0.0 0.0 0.00 0.09 0.00 64 1005.0
20260506103053 64 192 0.0 5.2 0.00 0.09 0.00 69 1005.1
20260506101556 63 360 0.9 4.3 0.00 0.09 0.00 70 1005.2
20260506100047 63 360 0.0 0.0 0.00 0.09 0.00 71 1005.1
20260506094554 62 360 0.0 0.0 0.00 0.09 0.00 71 1005.2
20260506093046 61 360 0.0 0.0 0.00 0.09 0.00 76 1005.2
20260506091542 60 360 0.0 0.0 0.00 0.09 0.00 76 1005.3
20260506090038 60 360 0.0 0.0 0.00 0.09 0.00 78 1005.3
20260506084535 60 202 0.0 0.0 0.00 0.09 0.00 80 1005.2
20260506083034 59 203 0.0 0.0 0.00 0.09 0.00 79 1005.5
20260506081532 59 234 0.0 0.0 0.00 0.09 0.00 80 1005.4
20260506073023 57 165 0.0 0.0 0.00 0.09 0.00 86 1005.1
20260506071520 56 166 0.0 0.0 0.00 0.09 0.00 85 1005.0
20260506061552 53 236 0.0 0.0 0.00 0.09 0.00 80 1005.1
20260506044544 48 257 0.0 0.0 0.00 0.09 0.00 81 1005.6
20260506043043 47 284 0.0 0.0 0.00 0.09 0.00 83 1005.7
20260506041555 47 281 0.0 0.0 0.00 0.09 0.00 84 1005.7
20260506040039 48 261 0.0 0.0 0.00 0.09 0.00 84 1005.5
20260506034537 48 233 0.0 0.0 0.00 0.09 0.00 84 1005.3
20260506033034 49 225 0.0 0.0 0.00 0.09 0.00 84 1005.1
20260506031532 49 226 0.0 0.0 0.00 0.09 0.00 84 1005.2
20260506030032 50 225 0.0 0.0 0.00 0.09 0.00 83 1005.5
20260506024527 50 222 0.0 0.0 0.00 0.09 0.00 82 1005.5
20260506023026 50 222 0.0 0.0 0.00 0.09 0.00 83 1005.6
20260506021524 51 221 0.0 0.0 0.00 0.09 0.00 83 1005.7
20260506020025 51 243 0.0 0.0 0.00 0.09 0.00 83 1005.4
20260506014532 51 226 0.0 0.0 0.00 0.09 0.00 83 1005.3
20260506013027 51 225 0.0 0.0 0.00 0.09 0.00 83 1005.4
20260506011619 51 225 0.0 0.0 0.00 0.09 0.00 83 1005.7
20260506010024 51 223 0.0 0.0 0.00 0.09 0.00 83 1005.7
20260506004524 51 222 0.0 0.0 0.00 0.09 0.00 83 1005.7
20260506003014 52 222 0.0 0.0 0.00 0.09 0.00 84 1005.7
20260506001514 52 245 0.0 0.0 0.00 0.09 0.00 84 1005.7
20260506000018 52 244 0.0 0.0 0.00 0.09 0.00 83 1006.0
20260505234515 52 243 0.0 0.0 0.00 0.09 0.00 83 1006.1
20260505233007 53 225 0.0 0.0 0.00 0.09 0.00 83 1006.1
20260505231506 53 223 0.0 0.0 0.00 0.09 0.00 84 1006.1
20260505230004 53 224 0.0 0.0 0.00 0.09 0.00 83 1006.2
20260505224506 53 257 0.0 0.0 0.00 0.09 0.00 84 1006.3
20260505223007 53 244 0.0 0.0 0.00 0.09 0.00 84 1006.2
20260505221502 53 227 0.0 0.0 0.00 0.09 0.00 84 1006.4
20260505220100 53 244 0.0 0.0 0.00 0.09 0.00 84 1006.2
20260505214607 53 227 0.0 0.0 0.00 0.09 0.09 85 1006.1
20260505213100 53 227 0.0 0.0 0.00 0.09 0.09 85 1006.2
20260505211611 53 226 0.0 0.0 0.00 0.09 0.09 85 1006.0
20260505210104 54 225 0.0 0.0 0.00 0.09 0.09 85 1006.0
20260505204553 54 224 0.0 0.0 0.00 0.09 0.09 85 1005.9
20260505203053 54 244 0.0 0.0 0.00 0.09 0.09 86 1005.8
20260505201559 54 227 0.0 0.0 0.00 0.09 0.09 86 1005.5
20260505200050 54 227 0.0 0.0 0.00 0.09 0.09 86 1005.6
20260505194548 55 229 0.0 0.0 0.00 0.09 0.09 86 1005.6
20260505193050 55 226 0.0 0.0 0.00 0.09 0.09 86 1005.7
20260505191552 55 225 0.0 0.0 0.00 0.09 0.09 86 1005.5
20260505190058 55 246 0.0 0.0 0.00 0.09 0.09 86 1005.4
20260505184552 56 244 0.0 0.0 0.00 0.09 0.09 86 1005.2
20260505183049 56 240 0.0 0.0 0.00 0.09 0.09 86 1005.2
20260505181539 57 221 0.0 0.0 0.00 0.09 0.09 85 1004.8
20260505180041 57 213 0.0 0.0 0.00 0.09 0.09 85 1004.7
20260505174540 57 200 0.0 0.0 0.00 0.09 0.09 85 1004.9
20260505173040 57 202 0.0 0.0 0.01 0.09 0.09 85 1004.8
20260505171540 57 227 0.0 4.3 0.04 0.09 0.09 85 1004.6
20260505170035 57 200 1.7 6.1 0.06 0.09 0.09 86 1004.6
20260505164537 57 197 4.3 10.4 0.08 0.09 0.09 86 1004.6
20260505163033 58 247 4.3 8.7 0.08 0.08 0.08 86 1004.9
20260505161532 58 182 2.6 9.6 0.05 0.05 0.05 86 1005.3
20260505153030 62 206 9.6 21.7 0.00 0.00 0.00 79 1004.8
20260505151524 68 360 11.3 17.4 0.00 0.00 0.00 65 1004.2